Flag for Poland Weather past 2 weeks in Rzeszów, Poland

Now
66 °F

Fog.


Feels Like: 66 °F
Forecast: 60 / 90 °F
Wind: 5 mph from Northwest

Location: Rzeszow-Jasionka

Current Time: Aug 1, 2014 at 6:51:51 AM

Latest Report: Aug 1, 2014 at 6:00 AM


Visibility: 1 mi

Pressure: 29.89 "Hg

Humidity: 100%

Dew point: 66 °F

Location of RzeszówLocation

Historic Weather in Rzeszów — Graph

°F

Rzeszów temperature yesterday

Maximum temperature yesterday: 88 °F (at 2:30 PM)
Minimum temperature yesterday: 63 °F (at 4:30 AM)
Average temperature yesterday: 74 °F

Past Weeks' High & Low Weather Summary

 TemperatureHumidityPressure
High88 °F (Jul 31, 2:30 PM)100% (Jul 17, 6:30 AM)30.12 "Hg (Jul 17, 6:30 AM)
Low57 °F (Jul 20, 5:00 AM)29% (Jul 20, 3:00 PM)29.80 "Hg (Jul 30, 5:30 PM)
Average71 °F76%29.95 "Hg
* Reported Jul 17 6:00 AM — Aug 1 6:00 AM, Rzeszów, Weather by CustomWeather, © 2014

Note: Actual official high and low records may vary slightly from our data, if they occured in-between our weather recording intervals... More about our weather records

Advertising

Rzeszów weather history for previous 24 hours

 ConditionsComfort  
Time TempWeatherWind HumidityBarometerVisibility
6:00 AM
Aug 1
66 °FFog.5 mph100%29.89 "Hg1 mi
5:30 AM66 °FFog.7 mph100%29.89 "Hg2 mi
5:00 AM66 °FFog.5 mph100%29.89 "Hg2 mi
4:30 AM66 °FFog.7 mph94%29.89 "Hg2 mi
4:00 AM66 °FClear.3 mph94%29.89 "Hg10 mi
3:30 AM66 °FClear.5 mph100%29.89 "Hg10 mi
3:00 AM68 °FClear.7 mph94%29.89 "Hg10 mi
2:30 AM68 °FClear.7 mph94%29.89 "Hg10 mi
2:00 AM68 °FClear.6 mph94%29.89 "Hg10 mi
1:30 AM68 °FClear.3 mph94%29.89 "Hg10 mi
1:00 AM68 °FClear.5 mph94%29.89 "Hg10 mi
12:30 AM68 °FClear.3 mph94%29.89 "Hg10 mi
12:00 AM70 °FClear.No wind88%29.89 "Hg10 mi
11:30 PM
Jul 31
70 °FClear.No wind88%29.89 "Hg10 mi
11:00 PM70 °FPassing clouds.3 mph88%29.89 "HgN/A
10:30 PM72 °FClear.3 mph83%29.89 "Hg10 mi
10:00 PM72 °FClear.5 mph83%29.89 "Hg10 mi
9:30 PM72 °FPassing clouds.5 mph83%29.86 "HgN/A
9:00 PM72 °FSunny.6 mph83%29.86 "Hg10 mi
8:30 PM72 °FSunny.6 mph83%29.86 "Hg10 mi
8:00 PM72 °FSunny.6 mph88%29.83 "Hg10 mi
7:30 PM73 °FSprinkles. Scattered clouds.5 mph83%29.83 "HgN/A
7:00 PM75 °FSprinkles. Scattered clouds.6 mph74%29.83 "HgN/A
6:30 PM75 °FScattered clouds.2 mph69%29.83 "HgN/A
6:00 PM75 °FThunderstorms. Partly sunny.7 mph69%29.86 "HgN/A
5:30 PM77 °FThunderstorms. Partly sunny.13 mph69%29.86 "HgN/A
5:00 PM79 °FThunderstorms. Scattered clouds.14 mph70%29.83 "HgN/A
4:30 PM82 °FThunderstorms. Scattered clouds.5 mph58%29.83 "HgN/A
4:00 PM84 °FPassing clouds.1 mph48%29.83 "HgN/A
3:30 PM86 °FScattered clouds.2 mph49%29.80 "HgN/A
3:00 PM86 °FScattered clouds.2 mph49%29.80 "HgN/A
2:30 PM88 °FScattered clouds.3 mph46%29.80 "HgN/A
2:00 PM84 °FScattered clouds.2 mph51%29.83 "HgN/A
1:30 PM86 °FScattered clouds.3 mph52%29.83 "HgN/A
1:00 PM84 °FScattered clouds.3 mph51%29.83 "HgN/A
12:30 PM84 °FScattered clouds.3 mph51%29.83 "HgN/A
12:00 PM84 °FPassing clouds.5 mph55%29.83 "HgN/A
11:30 AM84 °FPassing clouds.5 mph58%29.83 "HgN/A
11:00 AM82 °FPassing clouds.7 mph58%29.83 "HgN/A
10:30 AM81 °FPassing clouds.6 mph62%29.83 "HgN/A
10:00 AM81 °FPassing clouds.5 mph62%29.83 "HgN/A
9:30 AM79 °FPassing clouds.5 mph65%29.83 "HgN/A
9:00 AM77 °FPassing clouds.3 mph69%29.83 "HgN/A
8:30 AM75 °FSunny.2 mph74%29.83 "Hg10 mi
8:00 AM73 °FSunny.No wind78%29.83 "Hg10 mi
7:30 AM68 °FClear.2 mph94%29.83 "Hg5 mi
7:00 AM66 °FClear.2 mph94%29.83 "Hg4 mi
6:30 AM64 °FFog.1 mph100%29.80 "Hg2 mi
6:00 AM64 °FFog.No wind94%29.80 "Hg2 mi
Weather by CustomWeather, © 2014

See weather overviewHow to use our weather pages